User: anonymous   Login
Location: Unspecified
(0.0000°N, 0.0000°E)
Time: 12:40:23
(UTC+00:00)
Language:

DMSP 5D-2 F-14 - Orbit

View from above orbital plane
View from above orbital plane
View from above satellite
View from above satellite

Ground track
Ground track

The orbit data is extracted from the following two-line orbital elements,

1 24753U 97012A   19110.94180589 +.00000033 +00000-0 +40211-4 0  9994
2 24753 099.0330 117.0440 0008157 332.1339 027.9396 14.15831857138280
Epoch (UTC): 20 April 2019 22:36:12
Eccentricity: 0.0008157
inclination: 99.0330°
perigee height: 833 km
apogee height: 845 km
right ascension of ascending node: 117.0440°
argument of perigee: 332.1339°
revolutions per day: 14.15831857
mean anomaly at epoch: 27.9396°
orbit number at epoch: 13828

The dashed part of the orbit path shows where the satellite is in the earth's shadow,  

DLR